Wind_Speed
5 3 2 5 7 8 8 9 8 4 5 5 4 3 3 4 5 4 5 6 7 5 5 9 9 11 11 10 13 15 15 20 24 24 26 27 28 31 34 35 35 35 34 32 30 28 26 25 25 24 22 21 19 19 18 19 20 21 22 24 25 24 24 26 27 27 25 22 22 21 20 19 18 16 15 14 13 13 12 12 12 12 12 12 12 12
4 4 7 9 10 8 7 8 7 2 2 1 2 2 4 4 5 6 4 5 3 4 6 6 7 11 12 10 15 14 9 16 25 26 29 32 32 34 36 37 37 35 35 33 32 31 28 26 26 26 24 22 20 19 19 20 20 21 21 23 24 25 25 26 25 25 23 21 20 19 20 19 17 16 16 15 15 13 13 14 14 14 14 14 13 13
2 3 11 13 7 4 3 4 5 5 4 3 2 2 4 3 4 6 4 4 1 4 5 4 4 9 11 10 13 16 14 19 28 30 33 35 34 36 37 38 37 36 36 36 35 34 31 28 28 27 25 23 21 20 20 21 22 22 22 23 24 25 26 25 23 23 23 23 21 19 19 17 16 18 18 17 16 15 15 16 16 15 15 14 14 13
3 6 13 13 8 5 3 3 5 3 4 4 3 3 4 4 2 4 4 4 1 2 3 4 5 7 9 8 10 19 21 23 29 31 32 35 35 38 39 39 39 40 40 39 38 36 34 31 30 29 27 24 23 22 22 23 24 24 24 25 25 25 24 24 25 25 26 27 25 22 19 18 19 20 20 18 18 18 17 17 16 15 15 14 14 14
6 6 4 7 9 8 6 4 5 4 3 5 6 6 6 5 6 6 4 4 4 4 2 2 6 6 7 9 10 12 12 17 26 27 28 35 38 38 37 37 40 41 42 41 40 39 37 34 32 30 28 26 25 25 24 24 25 25 25 24 25 26 26 27 28 28 28 29 27 25 23 23 23 22 21 22 22 21 19 18 17 16 16 16 17 18
8 7 3 7 6 7 7 5 6 7 4 5 6 9 9 7 7 5 2 4 4 5 3 1 4 6 4 6 9 6 3 9 18 18 23 34 35 35 36 37 38 39 40 40 40 40 39 36 34 31 30 28 26 26 26 25 25 25 25 24 26 28 27 28 28 27 28 27 25 26 27 28 27 25 24 24 23 22 20 18 19 20 20 20 20 20
5 9 6 6 6 7 6 5 5 7 5 4 6 8 9 7 5 5 1 2 1 4 4 2 2 7 5 4 7 6 5 10 12 11 20 30 29 31 37 37 37 37 39 39 39 39 38 36 35 33 31 29 28 27 26 26 26 26 26 26 29 30 27 27 27 26 25 24 24 25 26 26 25 26 27 25 23 22 20 21 23 24 24 23 21 20
4 8 7 6 6 6 6 5 6 8 7 4 5 6 7 6 6 5 4 4 4 3 5 3 2 5 7 6 6 7 9 11 12 13 19 27 28 29 33 34 35 37 39 40 41 40 39 37 36 34 32 30 28 27 27 27 27 27 26 27 29 30 27 25 25 23 23 24 25 25 25 24 23 24 26 26 24 23 24 26 27 26 25 23 20 19
4 8 9 9 7 5 6 5 7 10 5 6 4 6 6 6 5 3 4 3 1 2 5 4 1 3 8 6 3 3 6 10 13 14 15 22 27 27 28 31 33 36 37 39 41 42 40 38 36 34 32 30 28 27 27 28 27 26 25 27 29 28 25 24 24 25 25 26 26 26 25 25 25 25 25 26 26 27 29 29 28 27 25 23 20 18
1 6 9 9 6 7 6 3 7 11 6 4 6 7 6 5 5 5 4 3 2 1 6 6 3 4 7 4 2 0 4 8 11 12 12 18 23 22 24 27 30 33 35 37 39 40 40 37 35 34 31 30 29 27 28 28 27 27 28 30 29 27 25 25 26 28 28 27 26 26 25 26 27 28 28 29 30 32 32 30 29 27 24 22 20 18
2 1 4 4 4 5 5 3 2 7 6 8 7 6 6 6 5 4 3 4 1 4 6 9 10 7 6 4 4 4 5 7 8 7 9 14 17 17 19 22 26 30 33 35 37 37 37 35 34 33 32 31 30 29 29 30 30 30 31 31 29 27 26 27 29 29 28 27 25 25 25 26 28 30 31 34 35 35 33 31 29 26 24 22 20 18
4 1 1 2 4 6 7 4 3 2 5 7 5 5 4 4 4 4 4 4 1 6 6 8 7 7 7 6 4 6 7 6 7 7 8 10 12 14 15 17 22 27 30 33 35 36 37 36 36 35 34 33 32 31 33 33 32 33 32 32 31 30 28 29 30 29 28 28 26 24 25 26 29 32 34 36 37 36 33 30 28 26 24 22 20 18
2 4 3 1 4 7 6 4 3 4 3 5 5 6 3 3 3 3 3 0 3 7 5 2 1 4 9 8 7 10 10 9 10 12 11 11 12 14 14 16 19 24 28 31 34 37 38 38 38 37 36 35 35 35 36 36 35 34 33 33 34 32 30 30 31 30 29 29 27 25 25 28 31 33 34 35 35 34 31 28 26 25 23 21 20 18
3 5 2 1 3 8 10 6 3 1 3 5 6 6 5 2 0 3 4 2 4 6 4 2 1 4 5 5 11 15 16 17 17 16 17 16 16 16 16 18 20 24 27 30 34 36 38 39 38 37 37 37 37 37 38 38 37 35 34 35 34 33 32 32 31 31 31 29 27 26 27 31 34 35 35 34 33 31 29 26 24 22 21 19 18 17
5 6 5 7 4 10 12 8 6 5 5 5 4 6 5 5 4 4 4 4 4 4 4 2 2 4 3 3 9 12 15 20 20 21 24 23 21 18 17 19 22 25 28 30 33 35 37 38 37 36 37 38 38 38 38 38 37 36 36 37 35 34 33 33 32 32 32 30 28 28 30 33 35 35 34 33 30 28 27 25 23 21 20 18 17 16
4 6 6 5 3 12 12 6 7 8 2 3 3 5 3 6 5 3 3 4 3 3 3 2 4 5 4 5 8 8 11 13 14 19 23 24 20 15 15 18 22 26 28 31 33 34 35 36 36 35 36 38 39 39 39 39 38 38 38 38 36 34 33 33 33 33 31 30 30 31 34 36 37 35 34 32 30 27 26 24 22 21 20 19 17 16
3 5 4 1 1 6 8 6 6 5 4 1 3 4 4 4 5 2 3 1 2 3 4 3 5 5 3 7 8 8 9 8 8 13 18 19 16 14 16 18 22 26 29 31 33 34 35 35 35 35 35 37 39 41 40 39 38 38 38 38 37 35 33 33 33 33 32 31 33 34 37 38 38 36 34 32 30 28 26 24 23 22 20 19 17 16
4 3 4 1 2 3 1 6 4 3 5 5 4 6 2 2 2 2 2 3 3 4 5 3 7 5 2 6 4 2 7 9 9 11 13 14 14 17 20 20 22 25 27 30 32 33 34 34 35 35 35 36 38 40 40 39 38 38 38 37 37 37 36 34 33 33 33 33 35 37 39 40 38 35 33 31 29 28 27 26 24 22 21 20 18 17
4 2 4 1 2 2 3 5 3 4 3 4 4 6 4 1 2 2 2 2 1 4 5 3 5 5 5 6 1 3 9 11 12 12 9 11 16 21 24 22 22 24 27 30 32 33 34 34 34 34 34 35 37 39 39 39 38 38 38 37 37 37 36 35 34 33 34 35 37 39 40 40 38 35 33 31 30 29 27 26 24 23 21 20 19 17
3 3 3 2 0 1 2 2 4 2 1 4 3 3 2 2 3 3 3 3 3 3 4 3 3 4 6 7 6 9 12 11 12 10 8 13 21 26 27 25 25 26 28 30 32 33 34 34 33 33 33 34 35 37 39 40 39 39 39 38 38 37 36 35 34 34 35 37 38 40 41 40 38 36 34 32 30 29 27 25 24 23 22 21 20 18
2 3 3 2 2 0 2 4 8 10 6 3 4 5 3 1 2 1 1 2 4 3 2 4 6 5 4 5 8 11 11 11 11 9 8 15 24 27 27 27 27 28 28 29 31 32 32 32 32 32 32 32 33 35 39 41 41 40 40 40 39 39 38 37 36 35 37 38 40 41 42 41 39 36 34 33 31 28 27 26 24 23 22 21 20 19
3 3 3 2 2 4 5 5 5 8 6 5 6 8 8 6 4 2 3 2 2 3 4 3 7 8 4 4 7 8 8 9 11 10 10 18 25 25 25 26 27 27 28 28 30 31 31 31 31 31 32 32 34 36 39 42 42 42 42 41 40 40 40 39 38 37 38 40 41 42 43 42 39 37 35 33 32 29 28 26 25 24 23 22 21 19
5 3 3 3 4 5 6 4 2 4 3 3 2 4 4 4 5 5 5 4 2 3 3 3 6 9 4 4 5 6 7 9 11 12 13 20 24 22 21 22 24 25 26 27 28 29 29 29 30 31 32 33 35 37 40 42 43 43 43 42 42 42 42 41 39 38 39 41 42 43 44 42 40 38 36 35 33 31 29 28 26 26 24 23 22 20
5 3 3 1 2 3 4 4 3 2 2 2 1 2 5 7 7 5 4 4 3 4 4 3 6 8 3 1 2 3 5 8 11 13 15 21 23 21 21 20 20 22 23 26 28 28 28 29 30 32 33 35 36 37 40 43 44 44 44 43 44 44 43 42 40 39 41 42 42 44 45 43 41 39 38 36 34 32 30 29 28 27 25 24 23 21
7 3 3 2 2 2 3 3 2 1 2 4 4 5 8 10 8 2 0 2 3 8 9 5 9 7 2 4 3 2 2 5 11 12 13 19 22 21 20 19 19 20 21 25 29 29 30 30 31 33 35 36 36 38 40 43 44 45 45 45 45 45 44 43 41 41 42 43 44 45 46 44 42 41 40 38 36 33 32 31 30 28 27 26 24 23
9 4 6 6 7 8 7 6 5 4 3 2 4 7 9 10 11 7 2 4 8 7 10 9 12 6 1 4 4 3 2 5 10 11 13 18 21 20 18 18 20 20 21 24 28 29 31 32 32 34 35 36 37 38 41 44 45 46 46 46 46 46 46 44 43 43 44 45 45 47 47 45 44 43 41 39 37 35 34 32 31 30 28 27 26 25
4 3 10 12 12 14 12 7 6 9 7 6 9 12 13 13 14 9 6 9 8 2 5 13 13 10 9 6 5 6 4 6 8 10 14 18 19 19 18 20 21 20 21 23 26 29 31 33 33 34 35 37 38 39 41 44 46 46 47 47 47 47 46 45 44 45 45 46 46 47 48 47 46 44 42 39 37 36 35 34 32 31 29 28 27 27
3 3 13 16 18 19 17 9 10 13 13 14 14 15 16 16 14 13 14 13 6 4 12 14 7 11 19 11 8 8 6 5 7 11 17 19 19 20 20 20 21 21 22 24 26 29 32 34 35 34 35 38 39 40 42 44 46 47 47 48 48 48 48 46 46 46 46 47 48 49 49 47 46 44 42 40 38 37 36 35 34 32 31 30 29 29
3 7 14 16 18 21 20 11 11 14 13 14 16 18 18 19 17 19 22 17 8 7 20 15 9 14 22 13 8 9 9 11 14 17 20 19 20 22 21 22 23 23 24 25 27 30 32 35 36 36 36 38 40 41 43 44 46 47 48 49 49 50 49 48 48 48 48 48 49 50 49 48 46 45 43 42 40 39 38 36 35 34 32 32 31 29
3 7 11 13 16 20 19 11 11 13 11 9 14 17 18 21 24 25 25 20 14 15 23 18 10 17 18 7 7 11 18 22 20 19 21 22 24 24 22 24 25 25 27 27 29 32 33 34 36 36 37 38 40 42 43 45 46 47 49 50 50 51 50 49 49 49 49 49 50 50 49 48 47 46 45 43 42 41 39 38 37 35 34 33 32 31
3 5 4 6 9 15 17 9 9 12 12 10 12 14 18 22 24 22 19 15 14 17 23 18 15 19 12 5 8 14 18 19 16 18 23 25 26 25 24 27 28 28 30 30 31 34 34 34 36 37 38 39 40 42 43 44 46 47 49 50 51 51 51 50 50 50 50 49 49 50 50 49 49 47 46 44 43 42 41 39 38 37 36 35 33 32
2 2 2 4 4 12 11 6 8 9 8 7 11 16 21 21 16 14 14 14 16 18 19 16 15 18 9 5 8 11 12 13 15 19 24 26 27 27 27 30 31 31 32 33 35 36 35 36 36 36 38 39 40 41 41 42 45 47 49 49 50 51 50 50 50 49 49 49 48 50 51 51 50 48 47 46 44 43 42 40 40 39 38 37 35 34
5 4 1 4 5 10 7 7 9 5 2 6 15 21 22 16 11 11 13 15 17 16 14 13 15 19 11 6 8 8 8 11 17 23 28 29 29 30 30 32 32 33 34 36 38 39 37 37 35 34 37 39 38 38 38 40 43 44 46 48 49 49 49 49 49 49 49 49 49 51 52 51 51 49 48 47 45 44 43 42 41 40 39 38 36 35
6 8 6 5 6 10 6 8 7 4 6 10 12 14 16 16 17 17 15 17 17 14 14 15 16 18 13 8 10 11 11 17 24 31 34 32 30 31 32 33 33 34 35 36 39 39 37 36 34 33 35 36 36 35 36 38 40 41 44 46 47 47 48 48 49 49 49 49 50 51 51 51 51 49 48 47 45 44 44 43 42 42 40 39 37 36
7 7 5 3 3 5 4 7 4 8 10 9 3 2 9 15 18 18 17 18 18 17 18 19 19 20 17 13 15 18 21 26 30 33 33 31 31 30 31 33 34 34 35 36 38 39 35 33 32 31 31 31 32 33 34 35 37 39 42 44 45 46 47 47 49 49 49 49 50 51 51 51 50 49 48 47 46 45 44 44 43 42 40 39 39 38
9 7 3 2 3 2 3 6 9 7 4 6 5 2 2 3 7 10 13 17 19 19 20 21 23 24 20 19 22 25 26 26 25 28 30 29 29 30 32 33 33 33 34 35 36 35 30 28 27 26 24 24 25 27 28 30 33 36 39 41 43 45 46 46 48 49 49 50 50 50 50 49 49 49 48 47 46 46 45 44 43 42 41 41 41 40
9 8 4 4 5 4 5 8 8 5 8 11 9 5 5 6 9 10 10 15 18 20 19 18 21 22 19 22 30 28 22 16 14 20 27 26 26 30 31 31 31 31 31 30 29 25 21 19 18 17 16 17 18 20 23 25 30 33 36 39 41 42 44 45 47 48 48 48 48 48 47 48 48 48 48 48 47 46 45 44 43 42 42 43 42 40
7 7 8 8 6 5 7 8 6 5 11 13 9 6 11 12 11 11 8 12 12 14 18 17 18 19 18 21 25 18 9 6 9 15 22 23 23 25 25 26 28 26 23 19 16 14 12 12 12 12 13 15 16 19 21 24 27 30 33 35 37 39 41 43 44 45 45 45 44 45 45 46 47 47 47 47 46 45 44 43 43 43 43 43 43 41
5 3 6 8 6 5 7 8 7 8 9 8 4 4 8 12 11 10 5 10 7 6 15 17 16 19 19 18 15 9 6 6 11 12 14 17 18 20 20 20 18 14 11 11 11 12 12 12 14 15 16 17 18 19 20 22 24 27 30 32 33 35 37 37 38 39 39 39 40 41 42 44 45 45 45 45 44 43 43 43 43 43 43 43 42 41
6 4 5 8 8 7 8 8 6 6 6 5 5 3 5 12 14 10 4 9 4 2 8 12 14 17 16 13 10 9 7 10 9 7 9 14 16 15 13 11 11 10 11 11 11 12 13 13 14 14 14 15 16 17 19 21 22 24 25 26 28 29 29 28 29 30 31 32 33 35 37 39 41 42 42 42 41 41 42 43 43 43 42 42 42 41
6 5 5 8 10 10 11 9 5 4 5 5 7 10 12 13 10 7 7 5 2 1 2 6 10 12 12 13 14 10 10 12 7 5 11 15 14 13 13 11 11 10 10 10 10 10 10 10 10 9 9 10 12 13 15 16 17 18 19 20 21 20 19 20 22 23 24 25 27 29 31 33 35 36 37 37 38 39 40 41 42 42 41 41 41 41
6 4 4 7 9 8 8 7 5 5 5 6 10 14 15 10 4 7 5 5 5 3 1 2 5 6 9 14 15 11 9 9 9 11 14 14 12 12 12 10 9 9 9 9 9 8 8 8 8 9 8 9 9 9 9 10 11 12 13 14 13 11 11 13 15 16 18 19 21 22 24 26 28 29 31 32 34 35 37 38 39 40 40 40 40 40
7 6 5 6 6 3 4 6 5 5 5 17 17 8 6 5 4 7 8 5 5 5 3 3 4 5 8 12 12 12 11 12 13 13 14 13 11 11 12 11 10 10 9 9 9 9 9 9 9 9 9 8 8 8 8 8 8 9 9 8 6 6 8 10 10 12 14 15 16 18 19 21 22 23 25 27 28 30 32 33 34 36 36 37 38 38
5 6 5 5 6 5 5 8 5 3 8 21 16 3 5 8 8 11 10 5 5 6 4 5 8 8 10 13 15 16 15 15 15 15 14 14 12 12 13 12 12 12 12 12 11 12 11 10 10 10 10 10 10 9 9 9 8 8 7 5 5 6 8 8 9 11 12 12 14 14 15 16 18 19 21 22 24 26 27 28 30 31 32 34 35 36
3 3 3 3 4 3 3 4 2 2 7 13 5 3 11 15 10 10 10 7 8 8 6 8 11 11 11 13 16 18 16 16 16 14 13 13 12 12 12 13 13 13 13 12 12 12 11 10 10 10 10 10 10 10 9 9 8 8 8 8 8 9 9 8 9 9 9 10 11 11 12 13 15 16 18 19 20 22 23 24 26 27 29 30 32 33
0 0 1 2 2 1 1 2 2 1 4 8 4 6 15 15 9 9 9 8 9 9 9 9 10 11 12 13 14 16 16 16 15 13 12 12 12 12 12 13 13 12 11 11 11 10 11 11 10 10 9 10 10 10 10 10 10 10 10 9 9 9 8 8 8 7 7 7 8 8 10 11 12 13 15 16 17 18 19 21 22 24 26 27 29 30
1 1 1 2 3 3 1 3 3 2 4 7 7 8 12 12 10 9 8 8 10 10 11 11 10 11 12 11 11 14 16 15 14 14 13 12 12 13 13 13 14 13 12 12 12 12 12 11 10 10 9 9 9 9 9 9 9 9 9 9 8 8 7 7 7 6 7 7 7 8 9 9 10 11 12 13 14 16 17 19 20 22 24 25 26 28
3 4 3 1 3 3 2 2 1 3 6 8 8 10 11 10 10 10 9 10 12 11 11 12 11 11 12 10 9 12 15 14 13 14 15 14 14 15 15 15 16 16 15 14 13 12 11 10 9 9 9 8 8 7 7 8 8 8 8 7 7 6 5 5 6 6 7 8 8 9 9 9 10 11 12 13 15 16 18 19 21 23 24 25 26 28
5 6 4 2 2 0 2 3 1 1 5 10 12 12 11 10 10 12 12 12 12 12 12 12 12 11 11 11 9 11 13 13 12 13 15 16 17 18 18 17 16 15 14 14 13 11 10 10 9 8 8 8 7 6 6 7 7 7 7 6 6 6 6 6 7 7 8 9 10 11 11 12 13 14 15 17 18 20 21 23 24 26 27 28 29 31
5 5 3 4 4 3 2 6 8 4 1 10 17 17 14 12 12 13 13 12 12 11 10 10 11 10 10 10 10 10 11 13 13 13 15 18 19 19 17 16 15 14 13 13 12 11 11 10 9 9 8 7 7 6 6 7 7 8 8 8 8 8 8 9 9 9 10 11 11 13 14 15 16 18 19 20 22 23 25 26 28 29 30 31 32 33
7 8 7 5 4 4 5 12 16 6 1 8 20 22 19 16 15 15 14 12 11 10 8 8 9 10 10 11 12 11 11 13 15 16 17 19 19 17 15 14 13 12 12 11 11 10 10 10 9 9 8 8 8 8 8 8 9 9 10 10 11 11 11 12 12 13 13 13 14 15 15 17 18 19 20 22 23 25 26 27 28 30 31 32 32 33
Wind_Direction
142 123 163 203 212 208 200 195 204 188 138 140 145 153 198 217 266 255 264 261 183 165 244 222 226 248 251 257 261 250 222 221 234 241 242 239 236 233 232 234 235 236 235 229 226 227 225 224 226 226 226 227 224 220 215 213 211 204 204 204 197 195 198 198 197 197 202 208 211 213 215 215 210 204 203 197 189 187 186 183 180 175 171 169 166 161
131 160 221 222 213 203 196 200 217 222 154 150 158 228 258 221 254 256 250 281 196 177 262 241 230 255 254 254 263 256 214 220 233 235 241 241 238 236 234 235 235 234 233 228 226 227 224 223 224 225 225 225 225 220 213 211 209 204 203 203 197 193 196 199 201 200 201 207 211 214 215 214 206 196 192 187 185 184 182 180 173 167 165 165 165 164
135 214 239 231 201 164 189 187 196 228 236 253 209 228 266 238 270 281 275 310 168 182 263 272 248 258 259 257 260 250 226 233 240 238 243 244 240 238 236 235 233 231 230 227 225 225 224 221 222 224 224 223 223 220 214 209 206 204 201 200 199 197 199 200 198 194 192 195 201 207 211 209 199 187 185 187 185 178 177 175 169 168 168 169 172 170
175 244 246 225 173 146 222 196 152 195 244 241 219 207 248 243 251 276 287 315 320 213 255 284 284 270 264 263 259 251 241 245 251 249 250 249 244 243 242 239 235 231 229 225 222 223 222 220 220 222 222 220 219 217 214 210 207 205 202 201 200 199 199 197 196 195 195 197 200 203 205 202 194 187 185 184 180 175 175 174 173 175 174 173 172 164
208 242 239 175 163 172 207 210 162 176 245 247 219 207 227 230 215 229 280 324 329 328 319 309 300 279 254 250 253 257 251 251 256 253 251 250 248 247 246 242 238 234 231 226 222 222 221 220 222 221 220 219 217 216 215 212 209 207 203 199 198 199 197 195 196 197 200 204 203 198 194 190 189 187 185 183 179 176 177 179 179 174 167 164 158 152
234 237 129 115 151 173 186 218 195 180 219 263 229 209 214 211 213 235 334 17 358 328 318 3 292 282 267 244 250 274 295 257 256 249 245 249 248 244 242 240 236 232 231 229 226 225 222 221 221 221 220 219 217 216 215 212 208 206 202 195 194 196 196 197 202 205 209 210 203 192 188 187 188 186 182 184 183 179 180 182 174 163 156 154 152 149
229 222 189 136 148 162 181 229 220 180 182 259 240 203 202 193 200 237 205 79 272 262 292 64 198 270 286 233 239 257 262 258 260 258 253 253 249 243 241 239 235 230 227 227 226 226 223 221 222 222 222 221 219 215 212 209 202 202 203 198 196 198 201 204 209 210 209 205 197 191 192 193 193 188 181 182 185 184 181 175 165 157 153 153 154 151
178 201 210 178 164 166 183 227 222 172 160 241 241 166 167 179 199 223 189 185 227 254 313 5 132 270 279 247 234 231 244 265 267 265 264 260 254 248 245 241 235 232 230 227 225 224 223 223 224 225 224 222 219 214 210 206 201 201 204 200 198 202 207 209 207 204 198 195 193 192 196 199 198 195 186 182 183 182 177 168 161 157 156 155 155 152
153 179 201 185 180 197 202 218 189 159 169 243 209 126 134 159 163 149 146 187 298 15 290 294 97 262 270 262 260 219 234 260 261 254 257 260 259 254 249 243 237 234 232 230 229 227 225 223 223 225 223 220 217 214 210 205 201 200 197 194 196 202 207 204 199 197 195 196 197 198 202 202 198 197 191 183 180 176 171 166 161 160 159 156 154 152
149 189 197 172 176 209 206 212 172 167 194 201 136 92 70 75 78 75 104 123 37 343 243 239 185 237 270 247 182 157 238 242 252 254 254 260 263 262 254 245 237 233 230 230 230 229 227 222 221 221 219 217 215 211 206 202 199 195 192 193 199 205 205 199 195 196 196 200 205 207 209 207 199 194 189 180 175 171 169 167 164 163 161 158 157 154
329 176 198 179 186 187 149 93 153 177 167 129 102 61 42 29 37 44 57 83 20 273 234 217 199 207 272 266 194 210 227 216 232 255 262 263 263 263 259 248 237 232 229 227 226 225 223 219 217 217 215 213 211 206 201 201 198 194 195 200 205 207 203 199 198 199 202 207 212 213 213 211 202 192 184 176 172 171 171 170 168 165 163 161 159 157
336 67 229 216 177 137 108 80 44 89 122 114 89 76 63 345 7 17 359 49 256 256 239 228 206 192 235 260 235 240 248 228 219 234 249 259 260 259 257 250 240 233 229 225 223 220 217 214 213 213 212 210 207 203 199 200 200 200 203 206 205 204 203 202 203 204 206 209 212 213 213 210 200 189 182 176 173 173 173 173 170 167 165 163 161 159
294 234 268 277 185 161 127 98 44 25 62 99 98 106 109 308 347 342 305 73 235 252 266 274 164 204 236 246 254 261 265 248 228 227 234 248 262 265 260 251 241 233 228 225 221 219 216 213 211 210 209 207 205 203 200 200 202 206 208 204 202 203 203 204 205 206 207 209 211 211 207 201 194 186 181 177 176 175 175 176 174 171 170 168 164 160
258 293 298 124 240 197 169 160 179 210 159 151 139 143 156 169 243 276 262 262 262 265 297 340 160 247 270 252 236 239 245 247 247 249 254 262 268 268 262 251 238 230 228 225 222 219 216 214 212 211 210 208 206 204 203 203 205 206 204 201 202 204 204 204 206 206 207 209 209 205 199 194 188 184 181 179 179 177 177 178 178 175 173 170 166 161
216 283 206 182 204 187 185 190 172 139 154 183 150 141 160 159 176 225 215 224 256 280 298 294 188 208 211 244 239 238 250 257 261 264 266 272 273 268 258 242 230 226 224 223 221 220 218 216 214 213 211 209 208 206 205 205 205 204 201 201 203 205 205 205 206 207 207 207 205 198 193 191 187 185 182 181 182 180 178 179 178 175 172 170 167 164
206 267 230 209 168 169 183 186 132 110 135 233 116 120 183 180 181 228 209 183 192 289 288 226 222 220 209 266 270 261 270 269 267 265 263 266 270 264 251 234 225 223 221 221 221 219 218 217 215 215 213 211 209 208 208 207 205 204 202 202 203 205 207 208 208 208 207 206 201 193 191 190 188 186 184 183 183 180 179 180 179 177 173 172 172 169
180 277 274 342 64 178 181 161 139 145 177 170 131 173 204 168 157 213 269 34 82 264 264 200 245 287 309 280 262 242 258 276 280 268 257 258 262 256 245 231 223 222 220 221 222 220 219 217 216 216 215 213 211 209 210 209 208 207 204 202 202 205 208 210 211 209 207 205 198 192 191 191 190 188 187 185 183 180 179 180 180 179 176 175 177 174
167 259 285 117 172 248 130 113 91 77 130 129 179 198 160 68 102 126 258 347 38 258 268 215 240 269 271 271 288 217 240 261 265 257 256 260 255 248 244 235 227 224 222 223 222 222 222 219 218 217 216 216 213 211 212 211 211 210 207 204 203 205 208 210 212 211 208 203 197 193 192 192 192 191 189 187 186 183 183 183 182 182 181 179 179 179
159 227 295 67 170 275 46 102 75 20 98 127 178 180 131 132 211 122 176 237 198 256 285 269 242 239 209 229 271 178 215 236 246 245 252 255 244 242 243 237 229 223 221 222 221 221 221 220 219 217 217 216 214 213 212 212 213 211 209 207 206 208 210 210 212 212 209 204 199 196 194 194 193 192 190 189 188 188 188 188 186 185 186 185 183 184
160 201 268 336 331 328 34 138 176 214 28 54 89 147 119 145 178 163 170 173 166 238 287 296 265 239 221 211 195 202 210 215 232 239 238 241 241 242 242 238 231 224 222 224 223 223 222 221 219 219 219 217 214 213 212 213 215 213 209 208 208 210 212 213 214 213 208 204 201 199 196 195 195 193 192 191 191 192 192 192 191 189 190 190 188 189
139 210 239 311 327 189 194 205 187 185 180 148 153 170 183 155 118 164 206 136 137 179 245 280 278 257 233 205 192 206 213 206 214 225 233 242 244 245 246 245 239 230 227 228 227 225 223 221 220 219 220 219 216 214 214 214 215 214 210 208 209 210 212 214 215 214 210 205 202 201 198 197 197 195 194 193 194 196 195 194 194 193 193 193 192 193
185 197 175 172 236 204 223 245 208 198 193 176 188 192 189 177 138 160 239 206 147 189 187 219 271 262 225 196 197 202 213 214 210 208 227 245 247 249 252 252 248 238 231 232 231 228 225 222 221 219 219 218 216 215 215 214 215 214 211 209 210 211 212 214 215 214 210 206 204 202 199 198 198 197 195 195 196 197 197 197 196 196 196 196 196 197
157 110 137 183 218 217 240 262 229 215 192 128 203 205 177 179 153 161 221 219 175 227 180 140 274 274 238 183 197 204 215 231 227 213 225 245 252 257 258 256 255 245 234 234 234 231 227 225 222 220 219 217 216 216 216 215 214 214 212 211 211 211 213 214 216 215 211 207 205 203 200 200 200 199 198 198 199 199 199 200 199 199 200 199 199 200
134 126 167 217 296 308 303 314 13 32 114 125 237 171 163 203 197 179 208 186 175 224 178 134 264 269 279 213 221 236 239 249 244 226 230 246 253 260 263 261 259 248 234 232 234 232 228 226 223 221 219 217 216 216 216 215 215 214 213 212 212 213 214 215 216 215 212 209 207 203 201 201 202 201 201 201 201 202 202 202 203 203 202 202 204 205
170 178 154 159 278 313 329 309 316 319 171 187 221 198 193 206 198 194 67 116 236 224 171 177 247 240 274 317 323 335 312 272 251 233 231 246 252 256 261 264 261 252 238 230 230 230 227 225 224 222 220 218 216 216 216 215 215 214 213 213 213 213 215 216 216 214 212 210 208 204 202 203 204 204 204 204 204 204 205 205 206 206 205 205 207 210
170 177 161 181 223 223 220 222 206 183 164 188 216 199 203 205 193 202 209 195 239 221 161 201 242 237 296 297 281 298 311 271 259 244 233 240 249 254 259 264 262 253 243 234 229 229 229 227 226 225 222 219 217 217 216 215 215 215 214 214 214 214 215 216 216 214 213 212 209 206 204 205 206 206 207 206 206 207 207 208 209 209 208 209 211 214
142 188 186 197 215 222 230 222 147 134 154 201 208 191 201 210 200 200 220 221 223 175 193 224 234 254 266 241 233 255 243 242 257 251 239 239 244 249 253 261 260 252 245 239 232 231 231 230 229 227 224 220 219 218 218 216 216 216 216 215 215 216 217 217 216 214 213 213 210 208 207 208 208 209 209 209 209 210 210 211 212 212 212 213 215 218
90 193 200 209 216 225 235 218 153 155 178 199 202 194 203 209 199 200 220 222 166 125 249 239 195 245 258 236 213 238 238 245 253 245 244 244 245 247 248 252 253 248 241 237 235 235 234 233 231 228 225 222 220 220 219 218 218 217 217 217 216 216 217 218 217 215 214 214 212 211 210 210 211 211 211 211 211 212 213 214 215 215 215 217 218 221
131 201 206 211 218 230 237 215 168 177 191 199 200 200 203 203 199 207 219 220 170 185 249 246 166 222 252 243 212 214 215 229 236 239 245 248 248 249 247 246 247 244 238 237 240 241 238 235 232 229 227 225 222 221 220 219 219 219 219 219 218 218 218 217 217 216 215 215 214 213 213 213 213 213 213 213 213 214 215 216 217 217 218 219 221 223
172 209 206 203 216 236 240 212 172 187 199 206 208 205 204 203 205 211 217 218 204 217 246 251 223 240 251 229 194 211 222 232 239 242 244 246 247 247 243 243 244 242 241 243 248 248 242 238 234 231 229 227 224 223 221 220 220 220 219 220 220 220 219 218 217 217 217 217 216 215 215 215 215 215 215 215 215 216 217 217 218 219 220 221 223 225
195 213 192 171 208 243 243 208 169 193 202 210 220 218 216 213 211 213 217 216 214 230 246 252 257 260 251 180 209 223 220 228 236 237 238 241 243 242 240 241 243 243 246 249 251 249 243 238 235 233 232 231 228 225 223 222 222 221 221 221 221 221 220 219 218 218 219 219 219 218 217 217 217 217 217 217 217 218 219 219 220 221 222 223 224 226
163 224 44 96 191 245 242 177 163 203 213 225 239 232 223 220 215 212 213 211 208 221 238 246 254 258 242 179 224 221 198 210 226 229 233 237 238 237 238 241 244 246 250 254 253 249 244 239 236 235 234 233 230 227 226 225 225 224 224 223 223 223 221 220 220 220 221 221 221 221 220 220 219 219 219 219 220 220 220 221 222 223 224 225 227 228
149 166 166 133 193 248 241 145 151 183 197 240 243 234 225 218 210 211 220 221 212 210 223 230 238 248 243 200 221 222 193 210 227 230 233 236 235 235 237 241 247 251 255 258 255 251 248 244 241 239 238 234 231 230 229 229 229 230 229 227 225 224 223 223 222 222 223 223 223 224 223 222 222 221 221 222 222 222 221 222 224 225 226 227 229 231
163 177 197 174 198 239 216 127 126 176 213 234 240 231 223 214 208 213 221 223 216 209 222 233 241 251 249 214 219 230 221 225 236 240 242 242 238 237 240 244 249 253 256 258 256 253 250 246 243 242 241 238 235 233 232 232 233 234 232 229 228 227 226 226 225 225 225 225 225 226 225 224 223 223 224 224 224 223 223 225 226 228 228 230 231 234
174 188 200 171 194 229 155 120 168 216 223 245 282 232 225 217 210 215 224 227 222 216 227 240 248 252 248 232 230 238 241 243 245 248 249 247 242 242 246 250 253 255 257 258 257 253 248 244 243 242 240 238 237 236 236 236 236 235 233 232 231 230 229 228 227 227 227 228 228 227 226 225 225 226 226 226 225 225 226 227 229 230 231 233 236 237
176 186 183 148 178 185 124 174 218 237 269 287 296 291 240 184 177 204 233 241 230 220 223 231 240 247 249 245 244 246 250 254 256 253 249 246 244 244 246 250 254 255 256 257 256 252 248 246 246 244 242 242 242 242 242 242 241 239 237 235 233 232 232 231 230 230 230 230 229 228 228 227 227 228 228 228 227 227 228 229 231 232 234 237 238 238
176 180 181 195 199 199 209 219 235 287 298 272 258 219 170 155 160 178 219 245 235 223 221 223 236 246 248 250 251 250 251 260 268 260 250 244 243 244 245 247 251 254 257 259 257 252 249 247 244 242 243 244 245 247 247 246 244 242 240 238 236 235 235 234 234 234 234 234 233 233 232 231 231 231 230 230 230 230 232 233 234 236 238 239 239 239
190 188 189 204 207 197 220 236 239 250 255 254 246 194 179 186 177 164 199 249 246 223 213 214 232 242 242 248 250 244 237 256 268 261 251 241 238 241 243 245 249 252 255 252 242 229 222 221 221 224 230 234 240 245 247 248 248 245 243 242 240 239 238 238 239 239 238 239 239 239 238 236 235 234 233 233 234 235 237 237 238 239 241 242 243 243
216 205 187 206 209 189 211 230 225 227 242 243 227 196 186 182 156 130 186 249 254 201 198 204 220 232 236 240 230 191 164 233 254 258 245 231 227 232 236 238 236 230 214 194 185 185 192 202 210 216 221 225 231 235 238 243 244 243 243 243 241 241 241 242 243 243 243 244 245 244 243 241 240 239 238 239 240 241 241 242 243 244 245 246 247 247
211 197 187 210 213 202 211 225 227 238 247 217 197 210 184 159 138 121 205 247 251 167 194 203 218 234 240 230 195 164 187 226 247 254 218 205 207 210 207 201 191 179 172 172 178 187 194 201 206 210 214 217 220 222 224 227 230 232 236 238 239 240 242 244 246 247 248 249 248 248 248 246 245 244 243 244 245 245 246 247 247 248 249 249 249 249
205 200 195 210 215 210 214 225 242 252 235 204 182 170 152 137 141 180 218 220 180 160 200 207 226 244 238 208 186 187 215 226 228 199 183 183 184 180 173 175 179 177 178 182 185 186 184 183 182 184 188 193 198 203 206 211 217 222 227 231 234 239 243 246 249 250 250 251 250 251 252 250 250 249 249 250 250 250 251 251 252 253 254 254 253 252
196 198 195 210 215 215 218 223 240 257 226 160 147 157 152 141 188 215 187 122 125 147 144 183 217 233 213 196 191 191 194 188 173 167 169 174 178 176 175 177 176 173 171 165 158 153 154 159 158 156 160 164 169 177 185 194 205 213 221 226 230 238 246 249 251 253 253 254 253 254 254 253 253 253 252 253 254 254 255 256 256 257 257 257 257 256
182 179 191 207 199 191 223 212 217 261 191 141 133 146 182 192 187 155 134 119 133 135 118 134 153 162 167 168 166 163 154 148 150 152 153 157 163 160 154 148 146 149 148 144 144 143 142 146 148 148 154 160 163 170 176 182 194 205 213 217 220 233 242 242 245 247 247 248 250 251 252 254 254 255 255 256 257 258 259 260 259 260 260 260 260 260
184 181 193 206 187 173 208 210 212 280 169 152 144 145 184 167 137 124 126 135 141 135 133 136 136 149 159 154 148 148 144 139 139 136 133 135 137 134 133 132 132 136 137 137 140 141 140 147 155 157 164 170 171 175 179 181 189 195 192 184 186 204 214 217 222 228 231 236 241 245 249 252 253 255 256 256 258 259 260 260 260 261 261 261 261 261
199 184 171 185 187 174 193 209 236 354 163 165 157 83 142 145 130 120 122 124 134 138 138 138 141 148 157 156 148 143 139 136 134 131 128 128 128 129 132 134 135 138 139 139 140 142 147 151 154 158 164 166 165 167 169 168 168 165 158 156 166 178 186 194 205 214 220 229 236 240 245 248 249 251 253 254 256 258 258 259 260 260 261 261 261 262
6 18 93 108 154 157 115 174 192 337 168 170 160 131 144 147 137 125 121 123 134 134 128 133 139 140 149 158 153 144 143 143 138 135 136 136 136 140 142 142 140 138 137 139 139 142 146 143 141 144 147 148 150 151 151 151 146 142 146 155 162 168 174 184 193 201 209 218 225 231 237 241 244 247 249 251 253 255 256 258 259 259 260 261 260 261
309 197 79 89 156 177 181 167 175 210 197 175 162 157 157 155 147 137 133 140 141 134 130 131 128 129 140 153 157 150 147 148 146 144 145 146 146 146 144 142 140 135 132 133 131 129 132 132 131 132 131 133 140 142 145 150 149 150 157 164 167 172 181 187 196 205 210 216 224 229 235 241 244 247 250 252 255 257 258 259 259 259 260 260 260 261
197 154 131 160 182 180 208 229 241 253 226 207 191 180 172 163 156 150 148 153 149 139 134 132 129 132 137 141 153 154 148 148 151 149 148 151 151 146 142 141 141 138 134 131 129 128 128 128 126 125 126 130 136 141 149 155 156 159 165 169 176 187 200 210 219 227 229 232 237 240 245 252 256 259 263 265 266 267 267 267 267 267 267 268 268 267
137 148 158 145 130 60 286 240 228 328 253 236 225 205 185 170 161 153 147 152 154 147 139 133 128 130 135 134 142 151 149 149 153 151 150 152 149 143 141 140 139 137 135 134 133 131 129 129 129 129 131 136 140 143 150 156 161 167 174 184 198 209 221 231 235 240 243 245 248 251 255 259 261 264 267 268 270 271 271 272 271 271 272 272 271 271
132 160 161 111 141 219 241 183 170 144 236 227 219 209 191 176 172 167 159 156 156 150 145 142 135 131 136 138 139 147 153 151 151 153 153 151 147 145 144 143 141 140 139 138 138 137 137 139 141 143 146 151 153 156 165 175 185 192 200 209 216 222 231 237 241 246 250 253 257 259 261 263 264 265 266 266 267 268 269 271 271 272 273 272 271 272
171 173 172 154 175 213 189 176 179 173 15 213 207 206 199 187 182 181 175 166 160 155 152 156 153 149 151 152 148 153 160 156 153 156 157 153 150 149 147 145 145 144 142 141 141 144 147 150 154 159 163 167 173 183 194 203 210 217 224 228 232 236 239 242 246 249 251 253 255 256 259 262 264 266 268 269 270 270 271 271 272 272 273 274 273 273
Height
1549 1552 1554 1552 1549 1548 1550 1549 1547 1548 1551 1552 1553 1554 1555 1556 1554 1551 1548 1546 1546 1549 1549 1547 1547 1544 1541 1539 1538 1539 1541 1540 1539 1537 1536 1535 1535 1535 1534 1534 1533 1533 1534 1537 1538 1538 1539 1541 1541 1542 1543 1544 1544 1545 1545 1546 1547 1548 1549 1550 1551 1552 1553 1554 1554 1556 1558 1560 1562 1564 1565 1566 1567 1568 1569 1569 1570 1571 1573 1574 1575 1575 1576 1577 1577 1578
1550 1553 1551 1546 1544 1545 1548 1549 1549 1550 1551 1552 1554 1555 1556 1558 1554 1548 1547 1546 1546 1549 1546 1545 1547 1544 1540 1538 1536 1537 1538 1536 1534 1533 1531 1530 1530 1530 1530 1529 1530 1531 1532 1534 1535 1535 1537 1538 1539 1540 1540 1541 1542 1542 1543 1544 1545 1546 1547 1548 1549 1551 1552 1553 1553 1554 1555 1558 1560 1562 1564 1565 1566 1567 1568 1569 1570 1571 1572 1573 1574 1575 1576 1577 1577 1578
1553 1553 1546 1541 1544 1547 1548 1549 1550 1551 1551 1553 1555 1557 1557 1557 1554 1548 1547 1547 1547 1548 1545 1544 1546 1542 1537 1536 1534 1533 1533 1530 1528 1527 1526 1525 1526 1525 1524 1525 1526 1528 1528 1529 1531 1532 1533 1535 1536 1537 1538 1539 1540 1540 1542 1543 1544 1544 1545 1546 1548 1549 1550 1551 1552 1553 1554 1555 1557 1559 1561 1563 1564 1566 1567 1568 1569 1571 1572 1573 1574 1575 1576 1576 1577 1578
1553 1548 1539 1539 1545 1546 1547 1549 1550 1552 1553 1553 1555 1557 1556 1555 1554 1549 1547 1548 1547 1547 1546 1545 1545 1540 1535 1533 1530 1528 1527 1526 1524 1523 1522 1522 1521 1519 1519 1520 1521 1522 1522 1524 1526 1528 1530 1532 1533 1534 1535 1536 1537 1538 1539 1541 1542 1543 1544 1545 1546 1548 1549 1551 1552 1552 1553 1553 1554 1557 1559 1561 1563 1564 1566 1567 1569 1570 1571 1572 1573 1574 1575 1576 1577 1577
1544 1539 1535 1538 1543 1545 1546 1548 1550 1552 1553 1552 1552 1554 1553 1551 1551 1548 1548 1548 1546 1547 1545 1545 1546 1537 1530 1530 1526 1522 1524 1523 1520 1519 1519 1516 1515 1515 1516 1516 1516 1517 1518 1519 1522 1524 1526 1528 1529 1531 1533 1534 1535 1536 1537 1538 1539 1541 1543 1544 1546 1547 1548 1550 1550 1551 1551 1551 1552 1553 1556 1559 1560 1562 1564 1565 1567 1569 1570 1572 1573 1574 1575 1576 1576 1577
1539 1537 1536 1538 1542 1544 1546 1547 1548 1550 1553 1551 1548 1547 1546 1545 1546 1547 1549 1550 1550 1550 1546 1548 1549 1536 1526 1528 1525 1521 1523 1520 1516 1515 1513 1510 1510 1512 1512 1511 1512 1514 1515 1517 1519 1521 1523 1525 1527 1528 1530 1531 1532 1534 1535 1536 1538 1539 1542 1544 1546 1546 1547 1549 1550 1550 1550 1551 1551 1552 1553 1555 1557 1559 1561 1564 1566 1567 1570 1571 1572 1573 1574 1576 1576 1577
1536 1535 1535 1537 1540 1543 1546 1548 1546 1547 1552 1552 1545 1541 1543 1544 1545 1546 1548 1551 1554 1553 1549 1550 1552 1540 1527 1524 1521 1520 1520 1517 1513 1512 1508 1505 1506 1507 1506 1506 1508 1510 1512 1514 1516 1518 1520 1522 1524 1525 1526 1528 1529 1531 1533 1535 1537 1539 1540 1542 1544 1545 1546 1548 1549 1550 1550 1551 1552 1553 1554 1555 1556 1557 1559 1562 1565 1567 1569 1570 1572 1573 1574 1575 1576 1577
1531 1533 1535 1536 1538 1541 1545 1546 1543 1543 1550 1549 1542 1540 1542 1542 1545 1546 1548 1551 1552 1553 1551 1549 1552 1549 1534 1522 1518 1517 1518 1516 1513 1510 1504 1501 1501 1502 1502 1503 1505 1506 1508 1510 1512 1514 1516 1518 1520 1522 1523 1525 1527 1529 1531 1533 1535 1537 1539 1540 1543 1544 1545 1547 1548 1549 1550 1551 1552 1553 1554 1556 1557 1558 1559 1561 1564 1566 1568 1570 1571 1572 1573 1575 1576 1577
1528 1530 1532 1534 1538 1541 1540 1538 1537 1540 1544 1543 1541 1542 1542 1543 1545 1546 1548 1552 1555 1557 1554 1548 1552 1553 1536 1521 1519 1519 1519 1516 1509 1505 1500 1497 1497 1498 1499 1500 1501 1503 1504 1506 1508 1509 1512 1514 1517 1519 1521 1523 1525 1527 1528 1530 1533 1535 1537 1539 1541 1543 1544 1546 1547 1548 1549 1550 1552 1552 1553 1554 1556 1557 1559 1560 1562 1565 1567 1569 1570 1572 1573 1574 1575 1576
1528 1528 1528 1530 1534 1535 1533 1534 1535 1537 1539 1539 1541 1543 1544 1546 1548 1550 1551 1552 1556 1559 1554 1548 1550 1549 1531 1515 1518 1520 1517 1511 1503 1499 1497 1494 1494 1495 1495 1497 1497 1499 1501 1503 1505 1506 1509 1512 1515 1517 1519 1521 1523 1525 1527 1529 1532 1534 1536 1538 1539 1541 1543 1544 1545 1547 1548 1549 1551 1552 1552 1553 1554 1555 1557 1559 1561 1564 1566 1568 1569 1571 1572 1573 1574 1576
1528 1528 1528 1528 1529 1528 1530 1535 1536 1536 1536 1538 1541 1542 1545 1549 1549 1552 1554 1554 1557 1556 1547 1542 1542 1546 1537 1519 1514 1513 1507 1502 1499 1496 1494 1492 1492 1492 1492 1493 1494 1496 1498 1500 1502 1505 1508 1511 1513 1515 1517 1519 1521 1523 1526 1528 1531 1533 1534 1536 1537 1539 1541 1542 1544 1545 1547 1548 1549 1550 1551 1552 1553 1553 1554 1556 1559 1562 1564 1567 1568 1569 1571 1572 1574 1575
1529 1528 1528 1526 1526 1527 1529 1534 1536 1537 1537 1538 1539 1541 1547 1552 1552 1555 1558 1559 1561 1551 1539 1537 1539 1546 1541 1520 1508 1505 1499 1499 1497 1493 1490 1489 1489 1490 1490 1491 1492 1494 1495 1498 1500 1502 1505 1508 1510 1512 1514 1516 1518 1520 1523 1526 1529 1531 1532 1534 1535 1537 1539 1540 1542 1544 1546 1547 1548 1549 1550 1551 1552 1553 1553 1555 1557 1560 1563 1565 1566 1568 1569 1571 1572 1574
1528 1527 1527 1526 1526 1526 1527 1533 1538 1540 1539 1539 1540 1545 1553 1559 1560 1560 1560 1562 1561 1548 1539 1542 1544 1542 1530 1511 1504 1502 1496 1495 1493 1490 1489 1488 1488 1488 1489 1490 1490 1492 1493 1494 1497 1498 1501 1503 1505 1508 1511 1513 1515 1517 1520 1523 1526 1528 1530 1532 1533 1535 1537 1539 1541 1542 1544 1545 1546 1547 1548 1550 1551 1553 1554 1555 1557 1559 1562 1564 1565 1566 1568 1569 1571 1572
1530 1528 1527 1526 1525 1523 1522 1528 1535 1537 1539 1539 1538 1543 1552 1562 1567 1564 1561 1560 1554 1543 1541 1546 1544 1535 1519 1504 1499 1496 1491 1490 1488 1488 1488 1487 1488 1488 1488 1489 1488 1489 1491 1492 1494 1495 1497 1500 1502 1505 1508 1510 1512 1514 1517 1519 1522 1525 1527 1529 1531 1533 1535 1537 1539 1541 1542 1544 1545 1546 1547 1549 1551 1552 1553 1555 1557 1559 1561 1563 1564 1566 1567 1568 1569 1571
1528 1524 1520 1520 1518 1517 1517 1518 1521 1527 1535 1536 1533 1537 1543 1549 1553 1552 1550 1548 1542 1538 1542 1546 1539 1523 1508 1497 1492 1490 1489 1488 1488 1487 1487 1485 1486 1486 1486 1487 1486 1487 1489 1490 1491 1493 1495 1497 1500 1503 1506 1508 1510 1512 1514 1516 1518 1521 1524 1526 1529 1531 1532 1534 1537 1539 1540 1542 1543 1544 1546 1548 1550 1551 1553 1555 1557 1558 1560 1562 1563 1564 1566 1567 1568 1570
1526 1517 1511 1512 1511 1511 1513 1514 1517 1524 1534 1537 1535 1537 1538 1536 1534 1538 1544 1543 1542 1543 1542 1540 1528 1510 1499 1493 1490 1490 1489 1488 1487 1486 1485 1483 1483 1484 1483 1484 1484 1485 1487 1488 1489 1491 1493 1496 1498 1501 1503 1505 1508 1509 1511 1513 1515 1518 1521 1524 1526 1528 1530 1532 1534 1536 1538 1540 1542 1543 1545 1547 1549 1550 1552 1553 1555 1557 1559 1560 1562 1563 1564 1566 1567 1568
1521 1516 1512 1513 1512 1512 1513 1513 1516 1519 1526 1535 1538 1535 1533 1532 1529 1534 1545 1547 1549 1546 1534 1526 1517 1505 1500 1491 1484 1487 1486 1485 1487 1484 1482 1482 1481 1482 1481 1481 1482 1483 1484 1485 1487 1488 1490 1493 1495 1498 1500 1502 1505 1506 1509 1511 1513 1516 1518 1521 1524 1526 1528 1530 1532 1534 1536 1538 1540 1541 1543 1546 1547 1549 1550 1552 1554 1555 1557 1559 1560 1561 1563 1564 1565 1567
1508 1511 1513 1514 1513 1514 1514 1514 1516 1517 1520 1530 1534 1529 1528 1533 1533 1535 1543 1547 1550 1546 1529 1519 1513 1506 1504 1493 1483 1485 1486 1484 1484 1481 1480 1481 1480 1480 1478 1479 1480 1481 1483 1484 1485 1487 1488 1490 1493 1495 1498 1500 1503 1505 1507 1510 1512 1514 1516 1519 1521 1523 1525 1528 1530 1532 1534 1536 1538 1539 1542 1544 1546 1548 1550 1551 1553 1554 1555 1557 1558 1560 1561 1562 1564 1565
1501 1507 1514 1517 1515 1515 1515 1515 1519 1520 1519 1522 1524 1522 1526 1533 1536 1539 1543 1542 1545 1543 1528 1518 1514 1507 1501 1491 1482 1483 1484 1481 1479 1478 1480 1479 1478 1477 1475 1477 1478 1479 1481 1482 1483 1485 1486 1488 1491 1494 1496 1498 1501 1504 1506 1509 1510 1512 1515 1517 1520 1522 1524 1526 1528 1530 1532 1534 1536 1538 1541 1543 1545 1547 1549 1550 1551 1552 1554 1555 1556 1558 1560 1561 1562 1563
1499 1503 1511 1518 1517 1517 1517 1517 1521 1522 1521 1522 1522 1523 1525 1527 1530 1534 1536 1535 1536 1536 1526 1516 1509 1498 1489 1483 1477 1476 1476 1474 1474 1476 1477 1475 1474 1473 1473 1474 1476 1477 1478 1479 1480 1482 1484 1486 1489 1492 1495 1496 1499 1502 1504 1506 1508 1509 1512 1515 1517 1520 1522 1524 1526 1528 1530 1532 1535 1537 1540 1542 1544 1545 1547 1548 1550 1551 1552 1554 1555 1556 1558 1559 1561 1562
1498 1500 1507 1518 1521 1518 1515 1513 1513 1512 1514 1519 1522 1525 1526 1526 1529 1530 1530 1529 1528 1529 1526 1518 1503 1485 1477 1475 1470 1470 1471 1470 1470 1472 1473 1472 1470 1470 1471 1472 1473 1474 1476 1477 1478 1480 1482 1485 1487 1490 1493 1495 1498 1500 1501 1503 1505 1507 1510 1512 1515 1517 1519 1521 1523 1526 1528 1530 1533 1535 1538 1540 1542 1544 1545 1547 1548 1550 1551 1552 1553 1555 1556 1558 1559 1560
1495 1499 1505 1516 1519 1514 1509 1507 1507 1506 1506 1509 1512 1514 1515 1518 1524 1528 1528 1526 1525 1521 1519 1518 1502 1476 1466 1469 1466 1467 1469 1469 1469 1470 1471 1470 1468 1468 1469 1470 1471 1472 1474 1476 1476 1478 1480 1482 1485 1487 1490 1492 1494 1496 1498 1500 1502 1504 1507 1509 1512 1515 1516 1518 1521 1523 1526 1528 1531 1533 1536 1538 1540 1542 1543 1545 1546 1548 1549 1550 1552 1553 1554 1556 1557 1559
1489 1497 1502 1509 1512 1509 1506 1506 1508 1508 1506 1508 1510 1509 1510 1513 1515 1519 1520 1519 1521 1518 1513 1519 1509 1475 1460 1466 1466 1466 1468 1468 1469 1469 1468 1468 1467 1468 1468 1468 1470 1470 1472 1475 1475 1477 1479 1480 1483 1485 1487 1489 1490 1492 1494 1496 1498 1501 1503 1506 1509 1511 1513 1516 1518 1521 1524 1526 1529 1531 1534 1536 1538 1539 1541 1542 1543 1545 1547 1548 1550 1551 1553 1554 1556 1556
1488 1494 1498 1504 1507 1506 1506 1505 1506 1507 1507 1509 1510 1508 1510 1509 1506 1508 1509 1509 1514 1510 1509 1520 1510 1475 1461 1466 1466 1466 1467 1468 1468 1467 1467 1467 1466 1467 1468 1467 1469 1469 1471 1474 1474 1475 1478 1479 1481 1482 1483 1485 1486 1488 1490 1492 1495 1498 1500 1503 1505 1508 1510 1513 1516 1518 1521 1524 1526 1529 1531 1533 1535 1537 1538 1539 1541 1542 1544 1546 1547 1549 1551 1552 1553 1554
1486 1491 1495 1502 1506 1506 1508 1509 1508 1507 1507 1506 1505 1504 1503 1502 1505 1508 1508 1512 1509 1497 1498 1510 1496 1469 1464 1467 1465 1466 1467 1466 1467 1466 1466 1467 1465 1465 1466 1467 1467 1468 1469 1471 1472 1473 1475 1476 1477 1478 1479 1481 1482 1484 1487 1489 1491 1494 1496 1499 1501 1504 1507 1510 1513 1515 1518 1521 1523 1525 1528 1530 1532 1533 1534 1536 1538 1539 1541 1543 1545 1547 1548 1549 1551 1552
1477 1483 1487 1495 1500 1498 1496 1493 1493 1497 1502 1501 1498 1500 1501 1501 1504 1504 1506 1511 1503 1488 1491 1494 1478 1464 1465 1465 1463 1465 1466 1465 1465 1464 1464 1464 1464 1464 1465 1466 1466 1466 1467 1468 1469 1471 1472 1473 1474 1475 1476 1477 1479 1481 1483 1485 1487 1490 1493 1496 1498 1501 1504 1506 1509 1512 1514 1517 1519 1522 1524 1526 1528 1529 1531 1533 1535 1537 1539 1540 1542 1544 1545 1547 1548 1549
1473 1476 1477 1480 1481 1477 1471 1470 1474 1482 1492 1494 1491 1495 1498 1498 1499 1501 1503 1500 1491 1490 1490 1476 1466 1466 1464 1462 1464 1464 1464 1464 1463 1463 1463 1462 1463 1463 1464 1464 1464 1464 1465 1466 1467 1468 1469 1469 1470 1471 1473 1474 1476 1478 1480 1481 1484 1486 1489 1492 1495 1498 1500 1503 1506 1508 1511 1514 1516 1519 1520 1522 1524 1526 1529 1531 1532 1534 1536 1538 1540 1541 1543 1544 1545 1546
1470 1474 1473 1470 1468 1462 1457 1463 1471 1474 1479 1482 1484 1489 1491 1492 1496 1499 1496 1484 1481 1492 1483 1461 1465 1471 1458 1456 1463 1461 1462 1464 1462 1461 1461 1460 1462 1462 1461 1462 1462 1462 1463 1464 1464 1465 1464 1465 1466 1468 1470 1471 1473 1475 1477 1479 1481 1483 1486 1489 1491 1494 1496 1499 1502 1504 1507 1510 1513 1515 1517 1519 1522 1524 1527 1528 1530 1532 1533 1535 1537 1539 1540 1542 1543 1544
1465 1467 1466 1465 1464 1457 1452 1460 1469 1469 1470 1473 1476 1480 1482 1486 1491 1489 1483 1476 1478 1485 1470 1454 1466 1467 1449 1450 1459 1458 1460 1460 1457 1459 1459 1459 1460 1459 1459 1459 1459 1459 1460 1460 1461 1460 1461 1462 1463 1465 1467 1469 1471 1472 1473 1476 1478 1480 1483 1485 1488 1490 1492 1495 1498 1501 1504 1506 1508 1511 1514 1516 1519 1521 1524 1525 1527 1529 1530 1532 1534 1536 1537 1539 1540 1541
1459 1458 1457 1460 1463 1457 1452 1459 1465 1466 1469 1471 1471 1473 1474 1476 1477 1473 1472 1473 1476 1475 1461 1456 1466 1459 1443 1448 1454 1453 1455 1454 1454 1457 1456 1456 1457 1456 1457 1457 1456 1457 1457 1457 1457 1457 1457 1459 1461 1463 1465 1466 1467 1468 1470 1472 1474 1476 1479 1481 1484 1486 1488 1491 1494 1497 1500 1502 1505 1508 1511 1514 1516 1518 1520 1522 1524 1525 1527 1529 1531 1533 1534 1536 1537 1538
1458 1456 1456 1460 1464 1458 1452 1459 1466 1466 1468 1469 1470 1471 1468 1465 1465 1467 1469 1473 1476 1473 1462 1463 1468 1454 1440 1446 1450 1449 1451 1451 1452 1453 1451 1452 1454 1453 1454 1454 1453 1454 1454 1453 1454 1453 1455 1457 1458 1460 1461 1461 1463 1465 1467 1470 1471 1474 1476 1478 1481 1483 1486 1488 1490 1493 1496 1499 1503 1506 1508 1510 1512 1514 1517 1518 1521 1522 1524 1526 1528 1529 1531 1533 1534 1535
1459 1461 1461 1463 1467 1459 1451 1459 1468 1467 1468 1472 1470 1464 1459 1459 1462 1465 1465 1465 1467 1466 1465 1471 1467 1447 1437 1444 1446 1445 1447 1448 1448 1448 1448 1449 1449 1450 1450 1450 1450 1451 1450 1451 1451 1450 1451 1452 1453 1455 1456 1457 1460 1462 1465 1467 1469 1471 1473 1475 1478 1481 1484 1486 1488 1491 1494 1497 1501 1503 1504 1507 1508 1511 1513 1515 1517 1519 1521 1523 1525 1526 1528 1529 1530 1531
1457 1460 1460 1464 1468 1461 1453 1459 1466 1469 1475 1474 1457 1443 1445 1454 1460 1461 1459 1456 1456 1459 1462 1463 1451 1435 1435 1443 1443 1443 1446 1445 1443 1443 1443 1443 1444 1445 1446 1446 1447 1447 1447 1448 1447 1446 1447 1448 1450 1451 1452 1454 1457 1459 1463 1465 1467 1470 1472 1474 1477 1479 1482 1485 1487 1489 1491 1494 1497 1499 1501 1503 1505 1508 1510 1512 1515 1517 1518 1520 1521 1523 1524 1525 1527 1528
1454 1454 1455 1458 1460 1457 1455 1460 1467 1472 1470 1453 1433 1428 1437 1446 1450 1452 1451 1449 1451 1452 1449 1444 1436 1430 1435 1439 1438 1439 1440 1438 1437 1437 1437 1438 1440 1441 1441 1442 1443 1443 1444 1444 1444 1444 1445 1446 1449 1450 1451 1454 1457 1459 1462 1464 1466 1469 1472 1474 1477 1478 1481 1484 1486 1487 1489 1491 1493 1495 1497 1500 1502 1505 1508 1510 1512 1513 1515 1516 1518 1520 1521 1523 1524 1525
1452 1453 1453 1454 1455 1455 1458 1465 1467 1461 1448 1432 1426 1430 1433 1434 1437 1442 1444 1442 1443 1445 1442 1438 1433 1429 1430 1433 1433 1433 1433 1433 1434 1433 1434 1436 1437 1437 1438 1438 1439 1439 1440 1441 1440 1441 1443 1445 1447 1449 1450 1453 1456 1459 1461 1463 1466 1468 1470 1473 1475 1477 1479 1481 1483 1485 1486 1488 1490 1491 1494 1496 1499 1502 1505 1507 1509 1510 1511 1513 1515 1517 1519 1520 1521 1522
1445 1449 1451 1454 1456 1457 1460 1462 1452 1439 1431 1428 1429 1432 1432 1432 1436 1442 1443 1438 1434 1435 1436 1434 1429 1424 1425 1429 1430 1430 1431 1431 1431 1429 1430 1432 1433 1434 1434 1433 1434 1436 1436 1437 1438 1439 1442 1444 1447 1449 1451 1453 1456 1458 1460 1462 1465 1467 1469 1471 1473 1475 1477 1479 1481 1483 1484 1485 1486 1488 1491 1494 1497 1500 1502 1504 1505 1507 1508 1510 1512 1514 1516 1517 1518 1519
1436 1441 1446 1450 1451 1450 1451 1448 1440 1435 1434 1427 1422 1423 1427 1427 1429 1435 1437 1430 1422 1422 1426 1427 1425 1423 1423 1424 1425 1427 1430 1432 1430 1426 1425 1429 1430 1430 1430 1430 1432 1433 1434 1435 1436 1438 1441 1444 1445 1448 1451 1453 1456 1458 1459 1462 1464 1465 1467 1469 1471 1473 1475 1477 1478 1480 1481 1483 1484 1486 1489 1492 1494 1496 1498 1500 1502 1503 1506 1508 1510 1511 1512 1513 1514 1516
1432 1435 1439 1443 1444 1445 1445 1443 1442 1443 1436 1419 1411 1414 1419 1420 1421 1426 1430 1423 1413 1412 1418 1421 1422 1421 1419 1421 1423 1425 1431 1434 1428 1421 1421 1425 1427 1427 1428 1429 1430 1431 1432 1433 1435 1437 1440 1442 1444 1447 1450 1452 1455 1457 1459 1461 1462 1464 1466 1467 1469 1471 1472 1474 1476 1477 1479 1481 1483 1485 1487 1489 1491 1493 1495 1497 1499 1501 1504 1505 1507 1508 1509 1510 1511 1513
1432 1433 1435 1437 1439 1443 1444 1439 1437 1434 1422 1411 1411 1414 1417 1419 1419 1426 1433 1424 1409 1408 1414 1416 1416 1415 1414 1417 1421 1424 1431 1433 1424 1417 1419 1423 1424 1425 1427 1427 1428 1430 1431 1432 1434 1437 1439 1442 1444 1446 1448 1450 1452 1454 1457 1459 1460 1462 1463 1465 1467 1468 1469 1471 1473 1475 1478 1480 1482 1484 1485 1487 1489 1491 1493 1495 1497 1499 1501 1502 1504 1505 1506 1508 1509 1510
1433 1433 1436 1436 1434 1436 1437 1432 1428 1422 1414 1411 1415 1417 1418 1418 1419 1429 1435 1421 1406 1408 1413 1411 1411 1412 1412 1416 1420 1422 1425 1424 1418 1416 1419 1421 1422 1424 1425 1426 1428 1429 1431 1432 1434 1436 1438 1441 1443 1444 1446 1448 1450 1452 1454 1456 1458 1460 1461 1463 1465 1465 1467 1469 1471 1474 1477 1479 1480 1482 1483 1485 1487 1489 1491 1493 1495 1497 1499 1500 1501 1502 1504 1505 1506 1507
1430 1430 1430 1430 1427 1429 1430 1427 1423 1416 1410 1410 1413 1415 1417 1420 1423 1425 1419 1408 1406 1410 1410 1409 1410 1411 1411 1414 1416 1417 1417 1417 1417 1418 1419 1420 1422 1423 1425 1427 1428 1429 1431 1433 1434 1436 1438 1439 1441 1443 1444 1446 1448 1450 1452 1454 1455 1457 1459 1461 1462 1463 1465 1468 1471 1473 1475 1477 1478 1480 1481 1483 1485 1487 1489 1491 1493 1495 1496 1497 1498 1499 1501 1502 1503 1504
1422 1424 1426 1425 1422 1423 1423 1422 1421 1413 1404 1405 1412 1415 1415 1417 1418 1413 1405 1404 1408 1409 1407 1409 1409 1408 1409 1411 1413 1414 1415 1417 1418 1419 1419 1420 1422 1423 1425 1427 1428 1429 1431 1432 1433 1435 1437 1438 1440 1442 1443 1445 1447 1449 1450 1452 1454 1456 1458 1459 1461 1463 1465 1468 1470 1472 1473 1475 1477 1478 1480 1481 1483 1485 1487 1489 1491 1492 1493 1494 1495 1496 1497 1499 1499 1500
1406 1412 1417 1416 1415 1419 1421 1421 1417 1407 1398 1401 1409 1413 1413 1410 1406 1403 1404 1407 1408 1407 1408 1409 1407 1407 1409 1410 1411 1414 1415 1416 1418 1419 1420 1421 1422 1424 1425 1427 1428 1429 1430 1431 1433 1435 1436 1438 1440 1441 1443 1445 1447 1449 1451 1453 1454 1456 1458 1459 1461 1463 1465 1467 1469 1470 1472 1474 1475 1476 1478 1479 1481 1483 1485 1486 1487 1488 1489 1491 1492 1493 1494 1495 1495 1496
1396 1400 1404 1402 1402 1408 1411 1408 1402 1396 1394 1398 1401 1402 1404 1404 1403 1403 1405 1406 1407 1408 1409 1408 1407 1408 1409 1409 1411 1413 1414 1416 1418 1419 1420 1422 1423 1425 1426 1427 1428 1430 1431 1433 1434 1435 1437 1439 1440 1442 1444 1446 1448 1449 1451 1453 1454 1456 1458 1460 1462 1463 1465 1466 1468 1469 1471 1472 1473 1475 1476 1477 1479 1481 1482 1483 1484 1485 1486 1487 1488 1489 1490 1490 1491 1492
1389 1391 1392 1391 1392 1396 1397 1396 1396 1396 1397 1399 1399 1398 1400 1403 1404 1404 1404 1405 1407 1408 1408 1408 1408 1409 1409 1410 1411 1412 1414 1416 1418 1419 1422 1423 1424 1426 1427 1429 1430 1431 1433 1434 1435 1437 1439 1440 1441 1443 1445 1446 1448 1450 1451 1453 1455 1456 1458 1460 1461 1462 1464 1465 1466 1467 1469 1470 1471 1473 1474 1476 1477 1478 1479 1481 1481 1482 1483 1484 1484 1485 1486 1486 1487 1487
1389 1390 1388 1387 1392 1396 1396 1397 1399 1399 1399 1399 1400 1401 1401 1402 1404 1404 1405 1406 1407 1408 1409 1409 1409 1409 1410 1411 1411 1412 1415 1417 1418 1420 1423 1424 1426 1428 1429 1430 1432 1433 1434 1435 1436 1438 1440 1441 1442 1444 1445 1447 1449 1450 1452 1454 1455 1456 1458 1459 1460 1461 1463 1464 1465 1466 1468 1469 1470 1472 1473 1474 1475 1476 1477 1478 1479 1479 1480 1481 1481 1482 1482 1483 1483 1483
1391 1391 1390 1390 1392 1393 1394 1397 1399 1399 1399 1400 1400 1400 1401 1402 1403 1404 1405 1406 1407 1408 1410 1410 1410 1410 1411 1411 1412 1414 1415 1416 1418 1420 1422 1424 1426 1428 1429 1431 1433 1434 1435 1437 1438 1439 1441 1442 1443 1445 1446 1448 1449 1450 1452 1454 1455 1456 1457 1458 1460 1461 1462 1463 1464 1466 1467 1468 1469 1470 1471 1472 1473 1474 1475 1476 1476 1477 1478 1478 1478 1479 1479 1479 1479 1479
1387 1388 1391 1393 1393 1393 1394 1397 1399 1398 1398 1399 1399 1400 1400 1401 1402 1404 1405 1407 1408 1409 1410 1410 1411 1412 1412 1413 1414 1415 1416 1417 1419 1419 1421 1423 1425 1427 1429 1432 1433 1434 1436 1437 1438 1440 1441 1442 1444 1445 1446 1448 1449 1450 1452 1453 1454 1456 1457 1458 1460 1461 1461 1463 1464 1465 1466 1467 1468 1469 1470 1471 1472 1472 1473 1474 1474 1475 1475 1475 1475 1475 1475 1476 1476 1476
1385 1387 1389 1391 1394 1396 1396 1397 1399 1399 1399 1398 1398 1398 1399 1400 1402 1403 1405 1406 1407 1408 1409 1410 1411 1412 1413 1414 1415 1416 1417 1418 1420 1421 1422 1424 1425 1428 1430 1431 1433 1435 1436 1437 1439 1440 1441 1443 1444 1445 1446 1448 1449 1450 1452 1453 1455 1456 1457 1458 1459 1460 1461 1462 1463 1464 1465 1465 1466 1467 1468 1469 1470 1470 1471 1471 1471 1472 1472 1472 1472 1472 1472 1473 1473 1472
1383 1386 1388 1391 1394 1393 1390 1391 1394 1395 1395 1395 1395 1397 1398 1399 1401 1402 1404 1405 1407 1408 1409 1410 1411 1412 1413 1414 1415 1416 1417 1418 1420 1423 1424 1425 1427 1429 1430 1432 1434 1435 1436 1438 1439 1440 1441 1443 1444 1445 1447 1448 1449 1451 1452 1453 1454 1455 1456 1458 1458 1459 1460 1461 1462 1463 1463 1464 1465 1465 1466 1467 1467 1467 1468 1468 1468 1469 1469 1469 1469 1468 1468 1469 1469 1468
1379 1380 1382 1385 1386 1385 1384 1387 1390 1391 1391 1391 1393 1395 1397 1398 1399 1401 1403 1405 1406 1407 1408 1410 1410 1411 1413 1414 1415 1416 1417 1418 1420 1422 1424 1426 1428 1430 1431 1433 1434 1435 1437 1438 1439 1440 1442 1443 1444 1445 1447 1448 1449 1450 1451 1452 1454 1454 1455 1456 1457 1458 1459 1460 1460 1461 1461 1462 1463 1463 1463 1464 1464 1464 1465 1465 1465 1465 1465 1465 1465 1465 1464 1464 1464 1464